Tracking 29892 objects as of 21-Nov-2024
HD Live streaming from Space Station
objects crossing your sky now

QPS-SAR-7 TSUKUYOMI-II

Track QPS-SAR-7 TSUKUYOMI-II now!
10-day predictions


NORAD ID: 59447
Int'l Code: 2024-066F
Perigee: 579.3 km
Apogee: 583.6 km
Inclination: 45.6 °
Period: 96.2 minutes
Semi major axis: 6952 km
RCS: Unknown
Launch date: April 7, 2024
Source: Japan (JPN)
Launch site: AIR FORCE EASTERN TEST RANGE (AFETR)
Your satellite tracking list
Your tracking list is empty




NASA's NSSDC Master Catalog

Two Line Element Set (TLE):
1 59447U 24066F   24326.13794188  .00011479  00000-0  98602-3 0  9995
2 59447  45.6090 349.1223 0003138 313.6888  46.3733 14.97595842 33962
Source of the keplerian elements: AFSPC